Forside
METAR-TAF:

METAR-TAF

Lufthavne :

Sky Harbor Airport

Duluth, Minnesota, USA

Breddekreds: 46-43-19N, længdekreds: 092-02-36W, højde: 186 m

Aktuelle vejr

Denne rapport blev lavet for 12 minutter siden, kl. 11:35 UTC
Vind stille
Temperatur 18°C
Fugtighed 83%
Tryk 1017 hPa
Sigt: 16.1 km
skyfri

METAR: KDYT 121135Z AUTO 00000KT 10SM CLR 18/15 A3004 RMK AO2

Tid: 06:47 (11:47 UTC)


TAF: fraværende

Vejrobservationer og prognoser fra mere end 4000 lufthavne (METAR og TAF).

De gule og røde prikker repræsenterer de meteorologiske stationer.

Flyt musen over at se navnet på stationen.

Så klik over at se vejr observationer og prognoser.

At skifte det kort: Klik på de grønne knapper med et sort kors for at zoome ind; på den grønne knap med en bindestreg for at zoome ud; eller på de grønne pile for tilstødende kort.


METAR-TAF: